Regional Weather Roundup
Issued by NWS

Home | Current Version | Previous Version | Graphics & Text | Print | Product List | Glossary On
Versions: 1 2 3 4 5 6 7 8 9 10 11 12 13 14 15 16 17 18 19 20 21 22 23 24 25 26 27 28 29 30 31 32 33 34 35 36 37 38 39 40 41 42 43 44 45 46 47 48 49 50
000
ASUS45 KABQ 241810
RWRNM
NEW MEXICO REGIONAL WEATHER ROUNDUP
NATIONAL WEATHER SERVICE ALBUQUERQUE NM
1200 PM MDT TUE MAY 24 2016

NOTE: "FAIR" MEANS FEW OR NO CLOUDS BELOW 12,000 FEET AGL WITH NO
       SIGNIFICANT WEATHER OR OBSTRUCTIONS TO VISION.

      THIS PRODUCT IS RELEASED AS TWO VERSIONS.  ONE VERSION NEAR
      THE TOP OF THE HOUR CONTAINING PRELIMINARY DATA FROM ALBUQUERQUE
      AND OTHER STATIONS.  A FINAL VERSION WITH ADDITIONAL DATA IS
      ISSUED ABOUT 10 MINUTES AFTER THE HOUR.

NMZ501-503-504-510>518-241900-
NORTHWEST PLATEAU/NORTHCENTRAL MOUNTAINS

CITY           SKY/WX    TMP DP  RH WIND       PRES   REMARKS
FARMINGTON     FAIR      72  19  13 S20       29.98S
6HR MIN TEMP:  38; 6HR MAX TEMP:  72;

LOS ALAMOS     FAIR      66  21  17 SW12G23   30.09S
SANTA FE       FAIR      73  18  12 SW14G25   30.05S
6HR MIN TEMP:  40; 6HR MAX TEMP:  74;

TAOS           FAIR      66  23  19 SW7G16    30.08F
ANGEL FIRE     FAIR      59  26  27 W8G26     30.14S

$$
NMZ402-403-502-505>509-241900-
WESTCENTRAL MOUNTAINS/SOUTHWEST MOUNTAINS

CITY           SKY/WX    TMP DP  RH WIND       PRES   REMARKS
GALLUP         FAIR      69  20  15 SW21G30   30.05F
6HR MIN TEMP:  36; 6HR MAX TEMP:  69;

GRANTS         FAIR      71  19  14 SW16      30.06F
SILVER CITY      N/A     73  19  13 SW14G24   30.09S

$$
NMZ407-409-411-412-241900-
SOUTHERN DESERTS

CITY           SKY/WX    TMP DP  RH WIND       PRES   REMARKS
LORDSBURG      FAIR      77  21  12 W5        30.02S
DEMING         FAIR      80  25  13 SW12G23   30.02S
6HR MIN TEMP:  47; 6HR MAX TEMP:  81;

LAS CRUCES     FAIR      80  22  11 SW14G24   30.04S
HOLLOMAN AFB   FAIR      82  23  11 VRB7      29.99S
ALAMOGORDO     FAIR      81  25  12 S9G16     30.02S
T OR C         FAIR      79  21  11 S20G29    30.00S
6HR MIN TEMP:  58; 6HR MAX TEMP:  79;


$$
NMZ519>523-241900-
CENTRAL VALLEYS/CENTRAL HIGHLANDS

CITY           SKY/WX    TMP DP  RH WIND       PRES   REMARKS
ALBUQUERQUE    FAIR      73  23  15 SW6       30.02S
6HR MIN TEMP:  53; 6HR MAX TEMP:  75;

DOUBLE EAGLE   SUNNY     72  25  17 SW7G17    30.05S
MORIARTY ARPT  FAIR      75  19  12 SW8G21    30.05S
6HR MIN TEMP:  32; 6HR MAX TEMP:  75;

CLINES CORNERS FAIR      71  21  15 SW16G28   30.08S
6HR MIN TEMP:  45; 6HR MAX TEMP:  71;

BELEN          FAIR      74  22  14 E8        30.01S
6HR MIN TEMP:  48; 6HR MAX TEMP:  75;

SOCORRO        FAIR      81  18   9 SW14G22   29.98S
6HR MIN TEMP:  49; 6HR MAX TEMP:  81;


$$
NMZ524>526-539-540-241900-
SOUTHCENTRAL MOUNTAINS

CITY           SKY/WX    TMP DP  RH WIND       PRES   REMARKS
RUIDOSO          N/A     70  16  12 SW10G20   30.14S

$$
NMZ527>531-241900-
NORTHEAST HIGHLANDS/NORTHEAST PLAINS

CITY           SKY/WX    TMP DP  RH WIND       PRES   REMARKS
LAS VEGAS      FAIR      71  16  12 SW25G31   30.05S
6HR MIN TEMP:  49; 6HR MAX TEMP:  72;

RATON          FAIR      74  22  14 SW15G25   29.98F
6HR MIN TEMP:  39; 6HR MAX TEMP:  75;

CLAYTON        FAIR      81  39  22 S10G23    29.94S
6HR MIN TEMP:  41; 6HR MAX TEMP:  83;


$$
NMZ532>537-241900-
EASTCENTRAL PLAINS

CITY           SKY/WX    TMP DP  RH WIND       PRES   REMARKS
TUCUMCARI      FAIR      88  21   8 SW6G23    29.89F
6HR MIN TEMP:  55; 6HR MAX TEMP:  89;

CANNON AFB     FAIR      85  31  14 SW15G25   29.94S
6HR MIN TEMP:  56; 6HR MAX TEMP:  85;

CLOVIS AIRPORT FAIR      84  36  17 W12G23    29.93F

$$
NMZ028-029-538-241900-
SOUTHEAST PLAINS

CITY           SKY/WX    TMP DP  RH WIND       PRES   REMARKS
ROSWELL        FAIR      89  21   8 MISG      29.92S
6HR MIN TEMP:  52; 6HR MAX TEMP:  90;

ARTESIA        FAIR      88  19   8 SW21G29   29.92F
CARLSBAD       FAIR      86  21   9 W20G25    29.93S
6HR MIN TEMP:  57; 6HR MAX TEMP:  87;

HOBBS          SUNNY     88  25  10 SW15G23   29.95S


$$



USA.gov is the U.S. government's official web portal to all federal, state and local government web resources and services.